Temp
13 13 14 15 15 15 15 15 15 15 14 14 14 14 14 13 13 13 13 13 13 13 12 12 12 12 12 12 13 13 13 13 13 13 13 13 13 14 14 14 14 14 14 14 14 14 14 14 14 14 13 13 13 13 13 13 13 13 13 13 13 13 13 13 13 13 13 13 13
13 13 14 15 15 15 14 14 14 14 14 14 14 13 13 13 13 13 13 13 13 13 12 12 12 12 12 12 13 13 13 13 13 13 13 13 14 14 14 14 14 14 14 14 14 14 14 14 14 13 13 13 13 13 13 13 13 13 13 13 13 13 13 13 13 13 13 13 13
13 14 14 14 14 14 14 14 14 14 14 14 13 13 13 13 13 13 13 13 13 13 12 12 12 12 12 12 13 13 13 13 13 13 13 13 13 14 14 14 14 14 14 14 14 14 14 14 14 13 13 13 13 13 13 12 12 13 13 13 13 13 13 13 13 13 13 13 13
13 14 14 14 14 14 14 14 14 14 14 13 13 13 13 13 13 13 13 13 13 13 12 12 12 12 12 12 13 13 13 13 13 13 13 13 13 14 14 14 14 14 14 14 14 14 14 14 13 13 13 13 13 13 13 13 12 13 13 13 13 13 13 13 13 13 13 13 13
14 14 14 14 14 14 14 14 14 14 13 13 13 13 13 13 13 13 13 13 13 13 13 12 12 12 12 12 13 12 12 12 13 13 13 13 13 14 14 14 14 14 13 13 14 14 14 13 13 13 13 13 13 13 13 13 13 13 13 13 13 13 13 13 13 13 13 13 13
14 14 14 14 14 14 14 14 14 14 13 13 13 13 13 13 13 13 13 13 13 13 13 13 12 12 12 12 12 12 12 12 12 13 13 13 13 14 14 14 14 13 13 13 13 13 13 13 13 13 13 13 13 13 13 13 13 13 13 13 13 13 13 13 13 13 13 13 13
13 13 13 13 13 13 13 13 14 13 13 13 13 13 13 13 13 13 13 13 12 13 13 13 12 12 12 12 12 12 12 12 13 13 13 13 13 13 13 13 13 13 13 13 13 13 13 13 13 13 13 13 13 13 13 13 13 13 13 13 13 12 12 13 13 12 12 13 13
13 13 13 13 13 13 13 14 14 13 13 13 13 13 13 13 13 13 13 13 13 12 12 12 12 12 12 12 12 12 12 12 13 13 13 13 13 13 13 13 13 13 13 13 13 13 13 13 13 13 13 13 13 13 13 13 13 13 13 13 13 12 12 12 12 12 12 12 12
12 12 13 13 13 13 13 13 13 13 13 13 13 13 13 13 13 13 13 13 12 12 12 12 13 13 13 13 12 12 12 12 13 13 13 13 13 13 13 13 13 13 13 13 13 13 13 13 13 13 13 13 13 13 13 13 13 13 13 13 13 12 12 12 11 11 11 12 12
12 12 12 13 13 13 13 13 13 13 13 13 13 13 13 13 13 13 13 13 13 13 13 13 13 13 13 13 12 12 12 13 13 13 13 13 13 13 13 13 13 13 13 12 13 13 13 13 13 13 13 13 13 13 13 13 13 13 13 13 13 12 12 11 11 11 11 11 11
12 12 12 12 12 12 12 12 12 12 12 12 13 13 13 13 13 13 13 13 13 13 13 13 13 13 13 13 12 12 13 13 13 13 13 13 13 13 13 13 13 13 12 12 12 13 13 13 13 13 13 13 13 13 13 13 13 13 13 12 12 12 12 11 11 11 11 11 11
12 12 12 12 12 12 12 11 12 12 12 12 13 13 13 13 13 13 13 13 13 13 13 13 13 13 13 13 12 12 12 13 13 13 13 13 13 13 13 13 13 13 13 12 13 13 13 13 13 13 13 13 13 13 13 13 12 13 12 12 12 12 12 11 11 11 11 11 11
12 11 11 11 11 11 11 11 11 12 12 13 13 13 13 13 13 13 13 13 13 13 13 13 13 13 13 12 12 12 12 12 13 13 12 12 12 12 12 12 12 12 12 13 13 13 13 13 14 14 13 13 13 12 12 12 12 12 12 12 12 12 12 11 11 11 11 11 11
12 11 11 11 11 11 12 12 12 12 13 13 13 13 13 13 13 13 13 13 13 13 13 13 13 13 13 12 12 12 12 12 12 12 12 12 12 12 12 12 12 12 12 12 13 13 13 13 13 14 13 13 13 12 12 12 12 12 12 12 12 12 12 11 11 11 11 10 10
11 11 11 12 12 12 12 12 12 13 13 13 13 13 12 12 13 13 13 13 13 13 13 13 13 13 12 12 12 12 12 12 12 12 12 12 12 12 12 12 12 12 12 12 12 13 13 13 13 13 13 13 13 12 12 11 12 12 12 12 12 12 12 11 11 11 10 10 10
12 12 12 12 12 12 12 12 13 13 13 13 12 12 12 12 13 13 13 13 13 13 13 13 12 12 12 12 12 12 12 12 12 12 12 12 12 12 12 12 12 12 12 12 12 12 12 13 13 13 13 13 12 12 12 11 11 11 12 12 12 12 12 11 11 10 10 9 10
12 12 12 12 12 12 12 12 13 13 13 13 12 12 13 13 13 13 13 13 13 13 13 12 12 12 12 12 12 12 12 12 12 12 12 12 12 12 12 12 12 12 12 12 12 12 12 12 12 12 12 12 12 12 11 11 11 11 11 11 11 11 11 10 10 9 9 9 9
12 12 12 12 13 13 13 13 13 13 13 12 12 12 12 12 13 13 13 13 13 12 12 12 12 12 12 12 12 12 12 12 12 12 12 12 12 12 12 12 12 12 12 12 12 12 12 12 11 11 11 11 11 11 11 11 11 11 11 11 11 10 10 9 9 9 9 9 9
13 13 13 13 13 13 13 13 13 13 12 12 12 12 12 13 13 13 13 13 12 12 12 12 12 12 12 12 12 12 12 12 12 12 12 12 12 12 12 11 11 12 12 12 12 12 12 12 11 11 11 11 11 10 10 10 10 10 10 10 10 9 9 8 8 8 8 9 9
13 13 13 13 13 13 13 13 13 12 12 12 12 12 12 13 13 12 12 12 12 12 12 12 12 12 12 12 12 12 12 12 12 12 11 11 11 11 11 11 11 11 11 12 12 12 11 11 11 11 11 11 10 10 10 10 10 10 10 9 9 9 8 8 8 8 8 9 9
13 13 13 13 13 13 13 13 12 12 12 12 12 12 12 12 12 12 12 12 12 12 12 12 12 11 11 11 11 11 11 11 11 11 11 11 11 11 11 11 11 11 11 11 11 11 11 11 11 11 11 10 10 10 10 10 9 9 9 9 8 8 8 8 8 8 8 8 9
13 13 13 13 13 13 13 12 12 12 12 12 12 12 12 12 12 12 12 12 12 12 12 12 11 11 11 11 11 11 10 10 10 10 10 10 10 10 10 11 11 11 11 11 11 11 11 11 11 11 10 10 10 10 9 9 9 9 9 8 8 8 8 7 8 8 8 8 8
13 13 13 13 13 12 12 12 12 12 12 12 12 12 12 12 12 12 12 12 12 12 11 11 11 11 11 11 11 10 10 10 10 10 10 10 10 10 10 10 10 11 11 11 11 11 11 11 10 10 10 10 9 9 9 9 9 9 9 8 8 8 7 7 7 7 7 7 7
13 13 13 13 12 12 12 12 12 12 12 12 12 12 12 12 12 12 11 11 11 11 11 11 11 11 11 10 10 10 10 9 9 9 9 9 10 10 10 10 10 10 11 11 11 11 11 11 10 10 9 9 9 9 9 9 9 9 9 8 8 8 7 7 7 7 7 6 6
13 13 13 12 12 12 12 12 12 12 12 11 12 12 12 11 11 11 11 11 11 11 11 10 10 10 10 10 10 10 10 10 10 9 9 9 9 9 9 9 10 10 10 10 10 10 11 11 10 10 9 9 9 9 8 8 9 9 9 8 8 8 7 7 6 6 6 6 6
13 12 12 12 12 12 12 12 11 11 11 11 11 11 11 11 11 11 11 10 10 10 10 10 10 10 10 9 9 9 9 10 10 9 9 9 9 9 9 9 9 9 9 9 9 9 10 10 10 10 10 10 9 9 8 8 8 8 8 8 8 8 7 6 6 5 5 5 5
12 12 12 12 12 12 11 11 11 11 11 11 11 11 11 11 11 10 10 10 10 10 10 10 10 9 9 9 9 9 9 9 9 9 9 9 9 9 8 8 9 9 9 9 9 9 9 9 10 10 10 10 9 9 9 8 8 8 7 7 8 8 7 6 6 5 5 5 5
12 12 12 12 11 11 11 11 11 11 11 11 11 11 11 10 10 10 10 10 10 10 9 9 9 9 9 9 9 9 9 8 8 8 9 9 9 9 8 8 8 8 8 8 8 9 9 9 9 9 10 10 9 9 9 8 8 7 7 7 7 7 7 6 6 6 5 5 5
12 11 11 11 11 11 11 11 11 11 11 11 11 10 10 10 10 10 10 10 9 9 9 9 9 9 9 8 8 8 8 8 8 8 8 8 8 8 8 8 8 8 7 8 8 8 9 9 9 9 9 9 9 8 8 8 7 7 6 6 6 6 6 6 6 6 5 5 4
11 11 11 11 11 11 11 11 11 11 11 10 10 10 10 10 10 9 9 9 9 9 9 9 9 9 8 8 8 8 8 8 8 8 8 8 8 8 8 8 7 7 7 7 8 8 8 8 8 8 8 9 9 8 8 7 7 6 6 6 6 5 6 6 6 6 5 4 4
11 11 11 11 11 11 11 11 11 10 10 10 10 10 10 9 9 9 9 9 9 9 9 9 9 8 8 8 8 8 8 8 8 8 8 8 8 8 7 7 7 7 7 7 7 8 8 8 8 8 8 8 8 8 7 6 6 6 6 5 5 5 5 6 6 5 5 4 4
11 11 11 11 11 11 11 10 10 10 10 10 10 9 9 9 9 9 9 9 9 9 9 9 9 8 8 8 8 8 8 8 8 8 8 8 8 8 7 7 7 6 6 7 7 7 7 7 8 8 8 7 7 7 6 6 5 5 5 5 5 5 5 5 5 5 5 4 4
11 11 11 11 10 10 10 10 10 10 10 9 9 9 9 9 9 9 9 9 9 9 9 9 9 8 8 8 8 8 8 8 8 8 8 8 8 7 7 6 6 6 6 6 7 7 7 7 7 7 7 7 6 6 5 5 5 5 4 4 4 5 5 5 5 5 5 5 5
11 11 10 10 10 10 10 10 10 9 9 9 9 9 9 9 9 9 9 9 9 9 9 9 8 8 8 8 8 8 8 7 7 7 7 7 7 7 7 6 6 6 6 6 6 6 7 6 6 6 6 5 5 5 5 4 4 4 4 4 4 4 4 5 5 5 5 5 5
10 10 10 10 10 10 10 9 9 9 9 9 9 9 9 9 9 8 8 8 8 8 8 8 8 8 8 8 8 8 8 7 7 7 7 7 7 7 7 6 6 5 5 6 6 6 6 5 5 5 5 5 4 4 4 4 4 4 4 4 4 4 4 4 5 5 5 5 5
10 10 10 10 10 9 9 9 9 9 9 9 9 9 9 8 8 8 8 8 8 8 8 8 8 8 7 7 7 8 7 7 7 7 7 7 7 7 6 6 5 5 5 5 5 5 5 4 4 4 4 4 4 4 4 3 3 4 4 4 4 4 4 4 4 4 4 4 4
10 10 10 10 9 9 9 9 9 9 9 9 8 8 8 8 8 8 8 8 8 8 7 7 7 7 7 7 7 7 7 7 7 7 6 6 6 6 6 5 5 4 4 4 4 4 4 3 3 4 4 4 3 3 3 3 3 3 3 3 3 4 4 4 4 4 4 3 3
10 10 10 9 9 9 9 9 9 9 8 8 8 8 8 8 8 8 8 8 8 7 7 7 7 7 7 7 7 6 6 7 6 6 6 6 6 6 5 5 4 4 3 3 3 3 3 3 3 4 4 4 4 3 3 3 3 3 3 3 3 3 3 3 3 3 3 3 3
10 10 10 9 9 9 9 9 9 8 8 8 8 8 8 8 7 8 8 8 8 8 7 7 7 7 7 7 6 6 6 6 6 6 5 5 5 5 5 4 4 3 3 3 3 3 3 3 3 3 4 4 4 4 3 3 3 3 3 3 3 3 3 3 2 2 2 2 2
10 10 10 9 9 9 9 9 8 8 8 8 8 8 7 7 7 7 7 8 8 7 7 7 6 6 6 6 6 5 5 5 5 5 5 5 5 5 5 4 4 3 3 3 3 3 3 3 3 3 4 4 4 4 3 3 3 2 2 3 3 2 2 2 2 2 2 2 2
10 10 9 9 9 9 9 8 8 8 8 8 8 8 7 7 7 7 7 7 7 7 7 6 6 6 6 6 5 5 5 5 5 5 5 5 5 4 4 4 3 3 3 2 2 3 3 3 3 3 3 4 4 4 3 3 3 2 2 2 2 2 1 1 1 1 1 1 1
Height
680 682 684 687 690 693 695 699 702 705 707 710 713 715 718 722 725 729 732 735 738 741 744 746 749 751 754 757 760 762 764 767 769 772 774 776 778 780 782 784 786 788 790 792 794 795 797 799 800 801 803 804 805 806 808 809 809 810 811 812 813 814 815 816 817 817 818 819 819
680 682 686 689 692 694 697 700 703 706 709 711 713 715 719 722 725 729 732 735 738 740 743 746 749 752 754 757 760 762 765 767 769 772 774 776 778 780 783 784 786 788 790 792 794 795 797 798 799 801 802 804 805 806 807 808 809 810 811 812 813 814 815 815 816 817 818 819 819
681 685 688 691 693 695 697 700 703 706 709 712 714 717 719 723 726 729 732 735 738 741 743 746 749 752 754 757 760 763 765 767 769 772 774 776 779 781 783 785 787 789 790 792 794 795 796 798 799 800 802 803 804 805 807 808 809 810 811 812 813 814 814 815 816 817 818 819 819
684 687 690 692 693 695 697 700 703 706 710 713 715 718 721 724 726 729 733 735 739 741 743 746 749 752 755 758 760 763 766 768 770 772 774 777 779 781 783 785 787 789 790 792 794 795 796 798 799 800 801 803 804 805 806 808 809 810 811 812 813 814 814 815 816 817 818 819 819
687 689 691 692 694 696 698 700 703 707 710 713 716 719 722 724 727 730 733 736 739 741 744 746 749 752 755 758 761 764 766 769 771 773 775 777 779 781 783 785 787 789 790 792 794 795 796 798 799 800 801 803 804 805 806 807 808 809 810 812 813 814 814 815 816 817 818 819 819
688 690 692 693 695 697 699 701 704 707 711 714 717 719 722 725 728 730 733 736 739 741 744 747 749 753 756 759 761 764 767 769 771 773 775 777 779 781 783 785 787 789 790 792 794 795 796 797 799 800 801 802 804 805 806 807 808 809 810 812 813 814 814 815 816 817 818 819 819
689 690 692 694 696 699 701 704 706 709 713 716 718 720 722 724 728 730 733 736 739 742 745 748 750 753 756 759 762 764 767 769 771 773 775 777 779 781 783 785 787 789 790 792 793 795 796 797 798 799 801 802 804 805 806 807 808 809 810 811 813 814 814 815 816 817 818 819 819
689 691 693 695 699 701 703 705 708 711 714 717 720 721 723 725 728 730 733 736 739 743 745 748 751 754 756 759 762 765 767 769 771 773 775 777 779 781 783 785 787 789 790 792 793 794 795 797 798 799 801 802 803 805 806 807 808 809 810 811 813 814 815 816 816 817 818 819 819
691 692 695 698 701 704 705 707 709 712 715 718 721 723 724 726 729 731 734 737 740 743 746 749 752 754 757 760 763 765 767 769 771 773 775 777 779 781 783 785 787 788 790 791 793 794 795 797 798 799 801 802 803 804 806 807 808 809 810 811 813 814 815 816 817 817 818 819 819
692 694 697 700 704 705 707 709 710 713 715 719 723 725 727 728 730 732 735 738 741 744 747 749 753 755 758 761 763 765 767 769 771 773 775 777 779 781 783 784 786 788 789 791 792 794 795 797 798 799 801 802 803 804 806 807 808 809 810 811 813 814 815 816 817 818 818 819 819
693 696 699 702 704 707 709 710 712 714 718 721 725 727 729 730 732 734 736 739 742 745 748 750 753 756 759 761 763 765 767 769 771 773 775 777 779 781 783 784 786 787 789 791 792 794 795 797 798 799 801 802 803 804 806 807 808 809 810 812 813 814 815 816 817 818 818 819 819
695 697 700 703 706 708 710 712 714 717 721 724 727 729 730 731 733 735 737 739 742 745 749 752 754 756 759 761 763 765 767 769 771 773 775 777 779 781 783 784 786 787 789 791 793 794 795 797 798 799 801 802 804 805 806 807 808 809 811 812 813 814 815 816 817 818 818 819 819
697 700 703 706 708 710 712 714 717 720 723 726 728 730 731 733 734 736 738 740 743 747 750 753 755 757 759 761 763 765 767 769 771 774 775 777 779 781 782 784 786 788 789 791 793 794 795 797 798 799 801 802 804 805 806 807 808 809 811 812 813 814 815 816 817 817 818 819 819
700 703 706 708 710 712 714 716 719 723 725 727 729 731 732 734 735 737 739 741 744 748 751 754 756 758 760 762 764 765 768 769 772 774 776 777 779 781 783 784 786 788 790 791 793 794 795 797 798 799 801 802 804 805 806 807 809 810 811 812 813 814 815 816 817 817 818 819 819
703 706 708 710 712 714 716 718 721 724 727 729 730 732 733 735 736 738 740 743 746 749 751 754 757 759 760 762 764 766 768 770 772 774 775 777 779 781 783 784 786 788 790 791 793 794 796 797 798 800 801 802 804 805 806 808 809 810 811 812 813 814 815 816 817 817 818 819 819
705 707 709 711 712 714 717 719 723 725 728 729 731 733 734 736 738 739 742 744 747 750 752 754 757 759 761 763 764 766 768 770 772 774 776 778 779 781 783 785 787 788 790 791 793 794 796 797 799 800 801 803 804 805 806 808 809 810 811 812 813 814 815 816 817 817 818 819 820
706 708 709 711 713 715 718 721 724 726 729 731 732 733 735 736 739 741 743 745 748 750 753 755 756 759 761 763 765 767 769 770 773 774 776 778 780 782 784 785 787 789 790 791 793 794 796 798 799 801 802 803 804 805 807 808 809 810 811 813 814 814 815 816 817 818 819 819 820
706 708 710 712 714 717 719 722 725 727 729 731 733 734 735 737 739 742 744 746 748 750 752 754 756 759 761 763 765 767 769 771 774 775 777 779 781 782 784 786 787 789 790 792 793 795 796 798 799 801 802 804 804 806 807 808 809 810 811 813 814 814 815 816 817 818 819 820 820
707 709 711 714 716 718 721 723 726 728 730 732 733 734 736 738 740 743 745 747 749 750 752 754 757 759 761 764 766 768 770 772 774 776 778 779 781 783 784 786 788 789 791 792 794 795 797 798 800 801 803 804 805 806 807 808 809 810 811 812 814 815 816 817 818 819 819 820 821
708 710 713 715 718 720 722 725 727 729 731 732 734 735 738 739 741 744 746 748 749 751 753 755 758 760 763 765 767 769 772 774 775 777 779 780 782 783 785 786 788 789 791 793 794 796 797 799 800 801 803 804 805 806 807 808 809 810 811 813 814 815 816 817 818 819 820 820 821
710 712 715 717 719 722 724 726 728 729 731 733 735 737 739 741 743 744 746 748 750 752 754 756 759 761 764 766 768 770 773 774 776 778 779 781 783 784 785 787 788 790 792 793 794 796 797 799 800 801 803 804 805 806 807 808 809 810 812 813 814 816 817 818 819 819 820 821 821
712 715 717 719 721 723 725 727 729 730 732 734 736 738 739 742 744 745 747 749 751 754 756 758 760 762 764 767 769 771 773 775 777 778 780 781 783 784 786 787 789 790 792 794 795 796 798 799 800 801 802 804 804 806 807 808 809 810 812 814 815 816 817 818 819 820 821 821 822
715 717 719 721 723 724 726 728 730 731 733 735 737 739 740 743 744 747 749 751 753 755 758 760 762 764 766 768 769 771 773 775 777 779 780 782 783 785 787 788 789 791 792 794 795 796 797 799 800 801 802 804 805 806 807 808 809 811 812 813 814 816 817 818 819 820 821 822 822
717 719 721 723 724 726 727 729 731 733 734 736 738 740 742 744 746 749 751 753 755 757 759 761 764 765 767 769 770 772 773 775 777 779 781 782 784 785 787 789 790 791 792 794 795 796 797 798 799 801 803 804 805 806 808 809 810 811 812 813 814 815 817 818 819 820 821 822 823
718 720 722 724 725 727 729 730 732 734 736 737 739 741 743 746 748 750 752 754 756 758 760 762 764 766 768 770 771 773 774 775 777 779 781 783 784 786 787 789 790 792 793 794 795 796 797 798 799 801 803 804 805 806 808 809 810 811 812 813 814 815 817 818 819 820 821 822 823
720 722 723 725 727 729 730 732 734 735 737 739 741 743 745 748 750 752 754 756 758 759 761 763 765 767 769 771 772 774 775 777 778 779 781 783 784 786 788 789 791 792 793 794 796 797 798 799 800 801 803 804 805 806 808 809 810 811 812 813 814 815 816 818 819 820 822 822 823
721 723 725 727 729 730 732 734 735 737 739 741 743 745 747 749 751 753 755 757 759 760 762 764 766 768 770 772 773 775 776 778 779 780 782 783 785 786 788 789 791 792 794 795 796 798 799 800 801 802 803 804 805 806 807 809 810 811 812 813 814 815 816 817 818 820 821 822 823
723 725 727 729 730 732 734 735 737 739 741 743 745 747 749 750 752 754 756 758 759 761 763 765 767 769 771 773 774 775 777 778 780 781 783 784 785 787 788 790 791 793 794 796 797 798 799 800 801 802 803 804 805 806 807 808 810 811 812 814 814 815 816 817 818 819 820 822 823
725 727 729 730 732 734 736 738 739 741 743 745 746 748 750 752 754 755 757 759 760 762 764 766 768 770 771 773 775 776 778 779 780 782 783 785 786 787 789 790 792 793 795 796 797 799 799 800 801 802 803 804 805 806 808 809 809 811 812 814 814 815 816 817 818 819 820 822 823
727 729 730 732 734 736 738 740 741 743 745 746 748 749 751 753 755 756 758 759 761 763 764 766 768 770 772 774 775 777 779 780 781 783 784 785 787 788 790 791 792 794 795 797 798 799 799 800 801 802 804 804 805 806 807 809 809 811 812 814 814 815 816 817 818 819 820 822 823
729 731 733 734 736 738 740 742 743 744 746 748 749 751 752 754 756 758 759 760 762 764 765 767 769 771 773 774 776 778 779 780 782 784 785 786 788 789 790 792 793 794 796 797 798 799 799 800 802 803 804 805 806 807 808 809 810 811 812 814 815 816 817 818 819 819 821 822 823
731 733 735 737 738 740 742 743 744 746 747 749 750 752 753 755 757 759 760 761 763 765 767 768 770 772 774 775 777 778 780 781 783 784 785 787 788 789 791 792 794 795 796 797 798 799 800 801 802 803 804 805 806 807 808 809 810 812 813 814 815 816 817 818 819 820 821 822 823
734 735 737 738 740 742 743 744 746 747 748 750 751 753 754 756 758 759 761 763 764 766 767 769 771 772 774 776 777 779 780 782 784 785 786 787 789 790 791 793 794 796 797 798 799 799 800 801 803 804 804 805 806 807 808 809 811 812 814 815 816 817 818 819 819 820 821 823 824
735 737 739 740 741 743 744 746 747 748 749 751 752 754 755 757 759 761 763 764 766 767 769 770 771 773 774 776 777 779 781 783 784 785 787 788 789 790 792 793 795 796 798 799 799 800 801 802 803 804 805 806 807 808 809 810 811 813 814 815 817 818 819 819 820 821 822 823 824
737 739 740 742 743 744 745 747 748 749 750 752 754 755 757 758 760 761 763 765 766 768 769 771 773 774 776 777 778 780 781 783 784 786 787 789 790 791 792 794 795 797 798 799 800 800 801 802 803 804 805 806 807 808 809 810 812 813 814 815 817 818 819 820 821 822 824 824 825
738 739 741 743 744 745 746 748 749 750 751 753 754 756 758 759 761 763 764 765 767 769 770 772 774 775 777 778 780 781 782 783 784 786 788 789 790 791 793 794 796 798 799 799 800 801 802 803 804 804 805 806 807 809 810 811 812 814 815 816 817 818 820 821 822 823 824 826 827
739 740 742 743 745 746 747 749 750 751 753 754 756 757 759 760 762 764 765 766 768 769 771 773 774 776 777 779 780 781 783 784 785 786 788 789 790 792 793 794 796 798 799 800 801 802 803 804 804 805 805 806 808 809 810 812 813 814 815 816 818 819 821 822 823 824 825 826 828
739 740 742 744 745 747 748 750 751 752 754 755 757 759 760 761 763 764 766 767 768 770 772 773 775 776 778 779 780 782 783 784 785 787 788 790 791 792 793 795 797 798 800 801 802 803 803 804 804 805 806 807 808 809 811 812 814 815 816 817 819 820 822 823 824 825 826 827 828
739 740 742 744 745 747 749 751 752 754 755 756 758 759 761 762 764 765 767 768 769 770 772 774 775 777 778 779 781 782 784 785 787 788 789 790 792 793 794 795 797 799 800 801 802 803 804 804 805 806 807 808 808 809 811 812 814 815 816 818 819 821 822 824 825 826 827 828 829
740 741 742 744 746 748 749 751 753 754 756 757 759 760 762 763 764 766 768 769 770 772 773 774 776 777 779 780 781 783 785 786 788 789 790 791 792 794 794 795 797 799 800 802 803 803 804 805 806 807 808 808 809 810 811 812 814 815 816 818 819 821 823 824 825 827 828 829 829
741 742 743 744 746 748 749 751 753 755 756 758 759 761 762 764 765 767 769 770 771 773 774 775 777 778 779 781 782 784 785 787 788 789 791 792 793 794 795 796 797 799 800 802 803 803 804 805 806 807 808 809 809 810 811 812 814 815 816 818 819 821 822 824 825 827 828 829 829
Wind_Speed
32 31 30 30 29 29 29 27 28 29 30 30 29 28 28 28 28 28 27 27 26 26 26 27 27 28 30 31 31 30 30 31 31 30 31 31 31 30 30 29 28 28 27 26 26 25 25 24 24 24 24 23 23 22 22 21 21 21 20 19 19 20 21 21 20 19 17 15 14
32 31 31 30 29 29 29 28 28 27 27 29 28 28 29 29 28 27 27 27 27 27 28 28 28 30 31 32 31 31 31 31 31 31 31 31 31 30 29 29 28 28 27 27 27 26 26 25 25 24 24 23 22 21 21 20 20 20 19 19 19 19 20 19 19 18 16 14 13
32 31 30 30 30 29 28 28 29 29 28 27 28 29 29 29 28 28 28 28 28 29 29 29 30 31 32 32 31 31 32 32 31 31 31 30 30 30 29 29 28 27 27 27 27 27 27 26 25 24 24 23 21 21 20 19 19 19 19 18 18 19 19 18 18 16 15 13 12
32 31 30 30 30 30 30 29 30 31 30 28 29 29 29 29 28 29 29 30 29 29 29 30 31 32 32 32 32 31 31 31 31 31 30 30 30 29 29 28 28 27 27 27 28 28 27 25 24 23 23 22 21 20 20 19 19 18 18 18 18 18 17 17 16 15 13 12 11
31 30 30 30 31 32 32 31 32 32 30 29 29 29 28 28 28 29 30 30 30 30 31 32 32 32 32 32 32 31 31 31 30 30 30 29 29 29 28 28 28 27 27 27 28 28 26 25 23 23 22 21 20 19 19 19 19 18 18 18 17 17 16 15 15 13 12 11 10
30 30 30 31 32 32 31 32 33 32 31 29 29 29 29 28 29 30 30 30 30 31 32 33 33 32 32 32 32 31 31 30 30 29 30 30 29 29 28 28 27 27 27 27 27 27 26 24 23 23 22 21 20 19 19 19 19 18 18 17 17 16 15 14 13 12 11 10 9
32 32 32 33 33 33 32 33 32 32 31 29 30 31 31 30 31 31 31 32 32 32 33 32 33 33 33 32 32 31 30 30 30 30 30 30 29 29 28 28 27 28 28 27 27 26 25 24 23 23 22 21 20 20 19 19 19 18 18 17 16 15 15 13 12 11 10 9 8
33 34 34 34 34 34 33 33 33 32 30 28 29 30 32 33 33 33 33 33 33 32 32 32 33 33 33 33 32 31 30 30 30 30 30 30 29 28 28 28 28 28 28 27 27 26 25 24 23 22 22 21 20 20 20 20 19 18 18 17 16 15 14 12 11 10 9 7 6
33 34 36 36 34 34 34 33 33 32 30 28 29 30 32 34 35 35 34 33 32 32 32 32 33 34 33 32 31 31 31 31 30 30 30 30 29 28 28 28 28 28 28 27 27 26 25 23 22 22 22 21 21 20 20 20 19 18 18 17 16 14 13 11 9 8 7 5 4
34 35 36 36 35 34 33 33 33 32 31 30 30 31 33 34 35 34 33 32 32 32 32 33 34 34 33 31 31 31 31 31 31 31 30 30 29 28 28 28 29 28 28 27 26 25 24 23 22 22 21 21 21 21 21 20 20 19 18 17 15 14 12 10 8 7 5 4 3
35 36 36 36 35 34 33 33 33 33 32 31 31 32 32 33 33 33 32 32 32 32 33 34 34 33 32 31 30 31 31 30 31 30 30 29 29 29 29 29 29 28 28 27 26 25 24 23 22 22 22 21 21 21 21 20 20 19 18 16 15 13 12 10 8 6 5 3 3
35 35 35 35 34 33 33 33 33 32 32 31 31 31 32 32 32 32 33 33 33 33 34 34 34 33 31 30 30 30 30 30 30 30 30 29 29 29 29 29 28 28 27 26 25 24 23 22 22 22 22 21 21 21 21 21 20 19 17 16 14 12 11 10 8 7 5 4 4
35 35 34 33 32 32 31 31 31 31 31 30 30 30 30 31 33 33 34 34 34 34 33 33 33 31 30 30 30 30 30 30 30 30 29 29 29 29 29 28 28 27 26 25 24 23 22 22 21 21 22 22 21 21 21 20 19 18 17 15 13 12 11 9 8 7 6 6 6
34 33 32 31 30 30 30 30 29 29 29 29 29 29 30 31 32 33 34 34 34 33 32 32 31 30 29 29 29 30 30 30 30 30 30 30 29 29 29 28 27 27 26 25 24 23 22 21 21 21 21 21 21 21 20 20 19 18 16 15 13 12 10 9 8 8 7 8 8
33 31 31 30 30 30 29 29 29 28 28 28 28 29 30 30 31 32 33 34 33 32 31 30 29 28 28 29 29 30 30 30 30 30 30 30 30 29 28 28 27 26 26 25 24 23 22 21 21 21 21 21 21 20 20 19 18 17 16 14 13 12 11 9 9 8 8 8 8
31 31 31 30 30 29 29 28 27 27 27 27 28 29 29 30 31 32 33 33 32 31 29 29 28 28 28 29 30 30 31 31 31 31 31 30 30 29 28 27 27 26 25 25 24 23 22 21 21 21 21 21 20 20 19 18 17 16 15 14 13 12 11 10 9 9 9 8 8
31 31 30 30 30 29 28 27 26 26 27 27 28 28 29 29 30 31 32 31 30 29 29 29 29 30 30 30 30 31 31 31 31 31 30 30 29 29 28 27 27 26 25 25 24 23 22 21 21 20 20 20 20 19 19 18 17 16 15 14 13 12 11 10 10 9 9 9 8
30 30 30 29 29 29 28 27 27 27 28 28 28 28 29 30 30 30 30 30 30 30 30 30 30 31 31 31 31 31 31 31 31 30 30 29 29 28 28 27 26 26 25 25 24 23 22 21 20 20 20 19 19 19 19 18 17 17 16 14 14 13 12 11 10 10 10 9 9
29 29 29 29 29 29 28 28 28 28 28 28 28 29 29 30 30 30 29 29 30 31 32 32 31 31 32 31 31 31 30 30 30 30 29 29 28 28 27 27 26 26 26 25 24 23 22 21 20 20 19 19 19 19 19 18 18 17 16 15 14 13 12 11 11 11 10 10 10
28 28 28 28 29 29 29 29 29 28 28 28 29 30 30 30 30 30 30 30 31 32 33 33 32 32 31 31 31 30 30 29 29 29 29 28 27 27 27 27 26 26 26 25 24 23 22 21 20 19 19 19 19 19 19 19 18 17 16 14 13 12 12 12 12 12 11 11 11
28 28 28 28 29 29 29 29 29 29 29 29 30 30 30 30 30 30 31 32 32 33 33 33 33 32 31 31 30 30 29 28 28 28 28 27 27 26 26 26 26 26 25 24 23 23 22 21 20 20 19 19 19 19 19 19 18 17 15 14 13 13 13 13 13 12 12 12 12
27 28 28 28 29 29 29 29 29 30 30 30 30 31 31 31 31 31 32 33 33 33 33 32 32 31 31 31 30 30 29 28 28 27 27 26 26 26 26 26 26 26 25 24 23 23 22 21 21 20 20 20 19 19 19 19 18 17 15 14 14 15 15 14 14 14 13 13 13
27 28 28 28 29 29 29 30 30 30 30 30 31 31 32 32 32 32 33 33 33 32 32 31 31 31 30 30 30 30 29 28 27 27 27 26 26 26 25 25 26 25 25 24 23 23 23 22 21 21 20 20 19 19 18 18 17 16 16 16 16 17 17 16 16 15 15 15 15
27 27 28 28 29 29 30 30 30 30 30 31 31 32 33 33 33 33 33 32 32 32 31 31 30 30 30 30 30 30 29 29 28 27 26 26 26 26 25 25 25 25 24 24 24 23 23 23 22 21 20 19 19 18 18 17 16 16 17 18 18 19 18 18 17 17 16 16 16
27 27 28 28 29 29 29 30 30 30 31 32 33 33 34 34 33 33 32 32 32 31 31 30 30 30 29 29 29 29 29 29 28 27 27 26 25 25 25 24 24 24 24 24 23 23 22 22 22 21 20 19 18 18 17 16 16 17 18 19 20 21 21 20 19 18 18 18 17
27 27 28 28 29 29 29 30 30 31 31 33 34 34 34 33 33 32 32 31 31 31 31 30 30 29 29 28 28 28 28 27 27 27 27 26 25 25 24 24 24 24 23 23 22 22 21 20 20 19 19 18 18 17 17 17 17 18 20 21 22 22 23 22 21 20 19 18 18
27 27 28 28 29 29 29 30 31 31 32 33 34 34 33 32 32 31 31 31 31 31 30 30 29 28 28 28 27 27 27 26 26 26 26 26 25 25 24 24 23 23 23 22 21 21 20 19 18 18 18 17 17 17 18 18 19 20 22 23 23 23 24 24 23 22 21 20 19
26 27 28 28 29 29 30 30 31 32 32 32 32 32 31 31 31 31 31 31 31 31 30 29 28 28 27 27 26 26 26 26 25 25 25 25 25 24 24 23 23 22 22 21 20 20 19 18 18 17 17 17 17 17 18 20 21 22 23 24 24 24 25 25 24 23 22 21 20
27 28 28 28 28 29 29 30 30 30 31 31 31 30 30 30 30 30 31 31 31 30 29 28 28 27 27 26 26 26 25 25 25 24 24 24 23 23 23 22 22 21 21 20 20 19 19 18 18 18 17 17 17 18 19 21 23 24 25 25 25 25 25 25 24 24 23 22 21
27 28 28 28 28 28 28 28 29 29 29 29 30 30 30 30 30 30 30 30 30 29 29 28 27 27 27 26 26 25 25 24 24 24 23 23 23 22 21 21 21 21 20 20 20 19 19 18 18 17 17 16 17 18 20 23 24 25 26 26 26 26 25 25 25 24 23 23 22
27 27 27 27 27 27 27 27 28 28 28 28 29 29 29 29 29 29 29 30 29 29 28 28 27 27 26 26 25 25 24 24 23 23 23 22 22 21 21 20 20 20 20 20 19 19 19 18 17 17 16 16 17 19 22 24 26 26 27 26 26 26 25 25 25 24 24 23 23
27 27 27 26 26 26 26 27 27 27 28 28 29 29 28 29 28 28 29 29 29 28 27 27 27 27 26 25 25 24 24 23 23 22 22 22 21 21 20 20 20 20 20 19 19 19 18 17 17 17 17 17 18 21 23 26 27 27 27 26 26 26 25 25 24 24 23 23 22
26 26 26 26 26 26 26 27 27 27 28 28 28 29 28 28 28 28 28 27 27 27 27 27 27 26 26 25 25 24 23 23 22 22 21 21 21 21 20 20 20 20 19 19 18 18 17 17 17 17 17 18 20 22 25 27 27 27 27 26 26 26 25 25 24 24 23 22 20
26 26 26 26 26 26 26 26 27 27 27 28 28 28 28 28 28 27 27 27 26 27 27 27 26 26 26 25 25 24 23 23 22 21 21 21 21 21 21 20 20 19 19 18 18 17 17 17 17 18 19 20 22 24 26 27 27 27 27 27 26 26 25 24 23 22 21 20 18
27 26 26 26 26 26 26 26 26 27 28 28 28 28 28 28 27 27 27 27 26 26 26 26 25 25 25 24 24 23 23 23 22 22 21 21 21 21 21 21 20 19 19 18 18 17 17 18 18 19 20 22 24 26 27 27 27 27 27 27 26 26 25 24 22 21 19 18 17
28 27 26 26 26 26 26 26 26 27 27 28 28 27 27 27 27 27 27 27 27 26 26 25 25 24 24 23 23 22 23 23 23 22 22 21 21 22 22 21 21 20 19 18 18 18 18 18 19 20 22 24 26 27 27 27 27 27 27 27 26 25 24 23 21 20 18 17 16
29 29 28 27 26 26 26 26 26 27 27 27 27 27 27 26 26 26 27 27 27 26 25 25 24 24 24 23 23 22 22 22 23 23 22 22 22 22 23 23 22 20 19 18 18 18 19 19 20 21 23 25 27 27 27 26 26 26 27 26 26 25 23 22 20 19 18 17 16
30 30 29 28 27 26 26 26 26 26 26 26 26 26 27 27 26 26 26 26 26 26 25 25 24 24 24 24 23 22 22 22 22 23 23 22 22 23 24 24 23 21 20 19 19 19 19 20 21 22 24 26 27 27 26 26 26 26 27 26 25 24 22 21 20 19 18 17 16
31 31 30 29 28 27 26 26 26 26 26 26 26 26 26 26 26 25 25 25 25 25 25 25 24 24 23 23 23 23 22 22 22 22 23 23 22 23 24 25 24 22 21 20 20 20 20 20 21 22 24 25 26 27 26 26 27 27 27 26 25 24 22 21 20 19 18 16 15
30 31 31 30 29 28 27 27 27 27 26 26 26 26 25 25 25 25 24 24 24 24 25 25 24 24 23 23 24 24 23 22 22 22 22 23 23 23 23 24 24 23 22 21 20 20 20 20 21 22 23 24 26 26 26 26 27 28 27 27 26 25 23 22 20 19 18 16 15
29 29 29 29 29 28 28 28 27 27 27 26 26 26 26 25 25 24 24 24 23 24 24 24 24 24 24 23 24 24 24 23 22 22 22 23 23 23 24 24 24 24 23 22 21 20 20 20 20 22 23 24 25 25 26 26 27 28 28 27 27 26 25 23 21 19 18 17 15
Wind_Direction
136 136 137 138 139 139 139 138 140 142 143 144 143 143 143 144 146 147 148 149 148 148 149 151 153 155 157 160 161 162 163 164 164 166 170 172 175 176 176 177 178 178 178 177 176 176 177 178 178 178 179 180 181 183 186 189 191 192 194 195 197 199 202 204 209 214 219 222 225
134 135 137 140 139 138 137 136 138 138 140 142 141 140 141 142 143 144 146 148 148 147 147 150 153 155 157 159 161 163 163 163 164 167 170 173 174 175 176 176 177 178 177 176 176 176 176 177 177 177 177 178 180 181 184 188 191 192 194 196 199 201 203 206 209 213 217 218 220
133 136 138 139 138 136 135 136 137 138 138 138 138 139 139 140 141 142 143 145 146 146 146 148 152 155 157 159 161 163 163 164 165 167 169 171 173 174 175 176 176 176 176 176 176 176 176 176 177 177 177 178 180 182 183 186 190 192 194 196 200 202 204 205 209 212 214 214 214
134 136 138 137 136 136 136 136 137 138 138 136 136 137 137 138 138 139 141 142 144 145 147 149 152 154 156 158 160 161 162 163 165 166 168 169 171 173 175 176 175 175 175 175 176 176 176 176 176 177 179 180 182 183 184 186 190 193 195 197 200 202 203 205 207 209 209 208 208
133 134 134 133 133 134 134 133 135 137 137 135 135 135 135 135 136 137 139 140 143 146 148 150 151 153 156 158 159 159 160 161 163 164 164 166 170 172 174 175 174 174 173 174 175 176 176 174 175 177 178 180 182 185 187 189 191 193 195 198 199 201 204 204 205 206 205 203 202
129 129 128 127 128 128 128 130 133 136 136 136 135 135 134 135 136 138 139 140 143 146 148 149 150 152 154 156 157 158 158 160 160 162 163 165 168 171 173 173 173 173 172 173 174 175 175 174 174 175 177 180 183 186 188 191 193 194 194 194 197 200 201 201 202 201 200 198 198
125 124 122 122 123 124 126 129 131 133 135 136 137 137 137 136 137 138 140 140 142 144 146 148 149 151 153 155 156 156 157 158 159 160 162 165 167 169 170 171 171 171 171 172 173 173 174 175 174 174 176 180 182 185 188 191 193 193 192 191 195 198 198 197 198 197 194 195 195
122 120 119 120 121 124 126 129 130 131 132 133 135 137 137 136 137 138 138 140 141 143 146 147 150 152 153 154 154 155 155 156 158 160 162 165 166 166 166 168 168 169 170 172 173 173 174 175 175 175 176 179 181 184 188 191 192 192 191 190 191 193 193 193 192 191 190 191 193
117 116 117 119 122 125 126 127 128 129 130 130 133 135 136 136 137 137 138 139 141 143 145 147 150 152 153 153 153 154 155 156 157 159 162 164 164 163 163 165 166 168 170 172 173 174 175 175 175 177 179 181 182 184 187 190 191 191 191 190 188 187 187 186 185 184 184 186 190
115 116 118 120 123 124 124 124 126 126 127 128 131 134 135 136 136 137 138 139 141 143 145 148 150 151 151 152 152 153 155 156 158 160 161 162 162 162 163 165 166 168 169 172 174 175 176 176 176 177 180 183 184 185 186 189 190 191 190 189 186 183 180 179 178 176 175 175 178
118 119 121 122 123 124 123 122 123 124 126 129 132 134 135 135 136 136 137 139 140 142 145 149 150 150 150 151 152 154 155 156 158 159 159 160 162 163 165 166 168 169 170 172 174 176 177 177 178 178 180 182 184 185 185 188 190 191 190 187 186 182 176 173 172 169 166 167 169
120 121 122 122 123 123 123 121 122 125 128 132 134 134 135 135 136 137 138 139 141 143 146 148 149 149 150 151 152 154 155 156 157 157 158 160 162 164 166 168 170 171 171 172 175 177 179 179 180 180 180 181 183 184 185 187 190 190 190 187 185 183 178 174 173 170 168 169 171
121 122 122 122 122 123 122 122 124 127 131 134 134 134 135 136 137 138 139 140 141 143 145 147 148 149 149 150 152 153 154 155 156 157 157 159 161 164 166 168 170 171 172 173 176 179 180 182 183 183 182 181 182 184 185 187 189 191 191 189 187 185 182 179 178 176 173 172 169
122 122 122 123 123 122 122 123 126 130 133 133 134 134 135 136 138 139 140 140 141 142 144 145 146 148 149 150 151 152 153 154 155 156 158 160 163 165 167 168 170 171 172 174 177 180 182 182 184 185 184 183 183 184 185 186 188 190 192 193 191 189 187 185 183 180 175 169 163
123 124 125 125 124 123 123 125 128 131 132 133 134 135 135 135 137 139 139 140 140 141 142 143 144 147 149 150 151 152 153 154 156 157 159 161 164 166 168 168 170 171 172 174 177 180 183 184 185 186 185 185 184 184 185 186 187 189 191 193 192 191 190 188 185 180 172 164 157
125 126 126 125 124 124 125 127 130 132 134 134 135 135 135 135 137 138 139 139 140 140 141 142 143 145 147 149 151 153 154 156 158 159 161 163 165 167 168 169 170 172 174 175 176 179 182 184 185 186 185 185 184 184 184 186 187 188 189 191 191 191 190 187 181 171 162 157 152
126 126 126 125 125 126 128 130 132 134 135 135 135 135 135 135 136 137 138 138 139 140 140 141 143 145 147 149 152 154 155 157 159 161 163 164 166 167 169 170 172 174 176 177 177 178 180 182 183 183 183 183 182 182 183 185 186 187 188 189 190 190 186 181 171 160 151 149 148
124 125 125 125 126 128 130 131 133 135 135 135 134 134 135 135 136 136 137 138 138 139 140 141 144 146 148 149 152 155 157 158 160 162 164 165 166 168 169 170 172 175 177 178 179 179 180 180 180 180 180 180 181 181 182 183 184 186 187 188 188 186 179 168 156 147 142 144 144
123 124 125 126 127 129 131 132 133 134 134 134 133 133 134 134 135 135 135 137 140 141 142 142 145 147 149 151 153 155 157 159 160 162 164 165 167 169 169 170 172 175 177 178 180 181 181 181 180 179 179 180 180 181 181 183 184 185 186 186 183 177 167 154 143 137 138 142 143
123 124 125 127 128 129 130 132 133 133 132 132 132 132 132 133 134 134 135 138 142 144 145 145 146 147 149 151 152 154 156 159 161 162 163 165 167 168 169 170 172 174 177 178 179 179 179 180 180 180 181 182 181 181 181 182 183 182 181 179 172 163 152 141 134 134 138 141 138
123 124 126 127 129 129 130 131 131 131 130 130 130 130 131 132 133 135 137 141 144 145 146 146 147 147 149 150 151 152 154 157 159 161 162 163 164 166 168 171 173 174 176 177 177 178 178 178 179 181 183 183 182 182 182 181 180 177 173 166 157 148 140 134 132 136 139 138 134
124 126 127 128 128 129 130 130 130 129 128 128 128 129 130 132 134 137 140 143 144 145 145 146 146 148 149 151 151 152 153 155 157 158 160 161 163 165 168 171 173 174 175 176 177 178 178 179 180 182 183 182 181 181 181 179 176 171 164 156 148 141 135 133 134 137 137 134 132
125 126 127 127 128 128 129 128 127 127 127 127 128 130 132 134 136 139 141 142 143 143 143 144 145 147 149 152 153 153 153 153 154 156 159 161 163 165 168 171 173 174 175 177 180 181 181 180 180 182 182 180 179 178 178 177 173 167 159 152 146 141 136 135 136 137 135 133 132
126 126 127 127 127 127 127 127 126 126 126 127 130 132 134 136 137 139 139 140 140 141 141 142 144 147 149 152 154 155 155 154 154 155 158 161 163 165 167 170 172 174 176 179 182 185 185 183 181 180 179 178 177 177 177 175 171 165 158 152 146 142 139 137 137 136 135 134 135
126 126 126 126 126 126 126 126 126 126 128 130 132 134 135 136 137 137 137 137 138 140 141 142 144 147 149 151 154 156 157 157 157 157 158 160 162 164 166 168 171 173 175 178 181 184 186 186 183 180 178 177 178 177 175 172 168 163 157 152 147 144 141 140 138 137 137 138 139
125 125 125 126 126 126 126 126 127 128 130 132 134 134 134 135 136 136 136 136 138 140 142 143 145 147 149 151 153 154 156 158 160 160 161 161 162 164 166 168 170 172 174 176 179 181 183 184 184 183 181 181 181 178 172 168 165 161 156 152 149 147 144 142 141 141 141 143 144
122 123 124 125 126 126 127 128 129 130 131 132 133 133 133 134 135 136 136 137 139 141 142 143 145 147 149 150 151 152 153 156 159 161 163 164 164 165 166 168 169 171 173 176 178 179 180 182 183 185 186 186 184 179 173 166 163 159 155 152 151 150 148 146 145 145 146 147 146
121 122 124 125 126 127 128 130 130 131 131 132 132 132 133 135 135 136 137 138 140 141 141 142 144 146 148 149 150 152 154 156 158 160 163 165 166 167 167 168 169 170 173 175 177 178 180 183 185 187 189 187 184 179 173 166 161 158 155 153 152 151 150 149 150 150 149 147 145
122 123 124 124 125 127 128 129 130 130 131 132 132 133 134 135 136 137 138 139 140 140 140 141 144 146 146 147 150 153 155 157 159 161 162 164 165 166 167 168 168 169 172 174 176 179 181 184 186 187 188 187 183 178 172 166 161 158 156 155 154 153 152 152 152 152 151 147 143
122 123 124 124 126 127 127 129 130 130 131 132 133 134 135 135 136 137 138 140 140 141 142 144 145 146 147 149 152 154 155 158 160 162 163 164 164 164 165 166 166 167 169 173 176 179 182 184 185 185 185 184 181 177 171 165 161 158 157 156 155 155 155 155 154 153 151 148 144
122 124 125 125 126 126 127 129 130 131 132 133 134 135 135 135 136 137 139 140 141 142 144 146 146 147 149 152 154 155 156 158 160 162 164 165 164 164 164 164 164 165 168 172 176 179 181 183 183 183 182 182 180 175 169 164 160 159 158 157 157 157 157 157 156 155 153 151 148
124 125 125 125 125 126 128 129 131 132 133 134 134 135 134 135 136 138 140 142 142 143 145 146 148 148 150 153 155 157 158 158 160 162 164 165 164 163 162 162 162 164 167 172 175 178 180 181 181 181 180 180 177 171 166 162 160 159 158 158 158 158 158 158 158 158 157 156 155
124 124 124 124 125 126 128 130 132 133 133 133 134 134 134 135 136 138 140 142 143 145 147 149 150 151 153 155 156 157 158 158 160 161 163 165 164 162 161 160 161 164 168 172 175 178 179 179 178 178 177 175 172 167 162 160 159 158 158 157 158 159 159 160 161 161 160 159 159
125 125 125 125 126 127 129 131 132 133 133 133 133 135 135 136 136 137 139 142 144 146 148 151 153 154 156 158 159 158 158 159 160 161 163 164 165 163 161 159 161 164 168 172 175 177 176 176 175 174 172 170 166 163 160 159 158 158 157 157 158 160 161 162 163 163 161 160 158
128 127 127 127 127 128 130 131 132 132 133 132 133 135 136 137 138 139 141 143 144 145 147 150 153 154 156 158 160 160 160 160 161 162 163 164 164 162 160 159 160 164 168 171 173 173 172 171 170 169 167 165 162 160 159 158 158 158 158 159 160 161 163 163 163 162 160 158 155
132 131 130 130 129 130 130 131 132 132 132 132 133 134 136 137 139 141 143 145 145 145 145 148 151 152 152 154 157 160 161 162 161 161 162 164 164 162 159 158 158 161 165 168 168 167 166 165 166 166 165 162 159 158 158 158 157 158 159 160 161 162 163 163 161 159 157 155 154
137 136 134 133 132 132 132 132 132 132 132 133 134 135 136 137 139 142 145 147 146 145 146 148 149 151 152 154 155 158 161 164 162 160 160 162 163 161 158 156 156 158 161 163 162 161 161 163 165 167 165 162 159 158 158 157 157 158 160 160 161 162 162 161 158 156 154 153 153
141 141 139 136 135 135 135 134 134 133 133 133 135 137 138 139 140 142 146 149 148 146 146 148 149 151 153 155 155 156 159 161 161 159 158 160 161 160 157 153 152 154 156 158 158 158 160 164 167 169 168 164 161 160 159 158 157 158 159 160 160 160 159 157 155 154 153 153 154
144 144 143 140 139 138 137 136 136 135 134 134 135 137 139 140 140 143 146 150 150 149 148 148 149 151 153 154 153 152 153 155 157 158 157 156 159 159 156 152 150 151 153 155 157 159 163 166 169 170 170 167 164 163 161 160 159 159 159 159 159 158 156 155 154 153 153 154 155
145 145 145 143 142 141 139 138 138 138 138 138 137 138 139 140 141 143 146 149 150 150 150 149 149 151 152 153 150 148 149 150 153 155 155 154 156 157 155 152 150 150 152 156 160 163 166 169 171 171 171 169 167 165 164 162 160 159 159 159 158 156 155 155 155 155 156 157 158
144 144 144 143 143 142 141 140 140 141 142 142 140 141 141 142 143 144 145 146 147 148 148 147 148 149 150 149 148 147 147 148 150 153 154 154 154 155 154 153 151 151 154 158 163 167 169 171 172 173 173 172 170 168 166 163 160 158 158 159 158 157 156 156 157 158 160 160 160